Regional Weather Roundup
Issued by NWS

Home | Current Version | Previous Version | Text Only | Print | Product List | Glossary Off
Versions: 1 2 3 4 5 6 7 8 9 10 11 12 13 14 15 16 17 18 19 20 21 22 23 24 25 26 27 28 29 30 31 32 33 34 35 36 37 38 39 40 41 42 43 44 45 46 47 48 49 50

000
ASUS43 KIND 211509
RWRIN

WEATHER ROUNDUP FOR INDIANA
NATIONAL WEATHER SERVICE INDIANAPOLIS IN
1100 AM EDT SAT APR 21 2018

NOTE: "FAIR" INDICATES FEW OR NO CLOUDS BELOW 12,000 FEET WITH NO
SIGNIFICANT WEATHER AND/OR OBSTRUCTIONS TO VISIBILITY.

* - STATION DOES NOT REPORT WEATHER SUCH AS PRECIPITATION OR FOG.

+ - STATION NOT QUALITY CONTROLLED BY THE NATIONAL WEATHER SERVICE.
    USE DATA WITH CAUTION...ESPECIALLY DEWPOINT AND RELATIVE
    HUMIDITY OBSERVATIONS.

INZ001>003-010>013-019-020-211600-
NORTHWEST INDIANA

CITY           SKY/WX    TMP DP  RH WIND       PRES   REMARKS
GARY /AIRPORT/ CLOUDY    48  21  34 VRB3      30.46S
KNOX *+        CLOUDY    50  30  46 S5        30.45R
LA PORTE +     FAIR      48  29  48 SW6       30.46R
MICHIGAN CITY+ FAIR      50  30  46 W3        30.46S
MONTICELLO +   CLOUDY    46  29  52 CALM      30.45R
RENSSELAER +   CLOUDY    45  21  39 CALM      30.46R
VALPARAISO     CLOUDY    49  28  44 SW6       30.46R

$$

LMZ046-743>745-211600-
SOUTHERN LAKE MICHIGAN

STATION/POSITION TIME  TEMP    WIND        PRES    WAVE
                       AIR SEA DIR/SP/G            HT
                 (UTC) (F)     (DEG/KT/KT) (MB)    (FT)
BURNS HARBOR     1440   41     340/  3/  6 1031.8R
MICHIGAN CITY    1440   42     350/  3/  4   N/A

$$

INZ004-005-014>016-021>024-211600-
NORTH CENTRAL INDIANA

CITY           SKY/WX    TMP DP  RH WIND       PRES   REMARKS
ELKHART        SUNNY     52  28  40 S6        30.45S
GOSHEN         FAIR      51  29  42 S8        30.45S
LOGANSPORT +   PTSUNNY   46  32  57 SE3       30.46R
PERU/GRISSOM   CLOUDY    50  30  46 SE8       30.42F
ROCHESTER +    FAIR      52  30  43 S6        30.46R
SOUTH BEND     FAIR      50  26  39 S7        30.46S
WARSAW +       FAIR      50  30  46 S3        30.45S

$$

INZ006>009-017-018-025>027-211600-
NORTHEAST INDIANA

CITY           SKY/WX    TMP DP  RH WIND       PRES   REMARKS
ANGOLA *+      FAIR      48  27  43 SE8       30.45F
AUBURN +       FAIR      50  28  43 SE3       30.46S
FORT WAYNE     CLOUDY    52  28  39 SE7       30.46S
HUNTINGTON +   FAIR      51  24  34 SE6       30.45R

$$

INZ028-029-035-036-043>045-051>053-211600-
WEST CENTRAL INDIANA

CITY           SKY/WX    TMP DP  RH WIND       PRES   REMARKS
CRAWFORDSVL +  FAIR      51  30  44 SE9       30.43R
GREENCASTLE +  FAIR      54  28  37 E9        30.42R
LAFAYETTE      FAIR      50  31  48 SE5       30.44R
TERRE HAUTE    FAIR      56  30  37 SE13      30.41F

$$

INZ030>032-037>040-046>048-054>057-064-065-211600-
CENTRAL INDIANA

CITY           SKY/WX    TMP DP  RH WIND       PRES   REMARKS
ANDERSON       FAIR      50  28  43 SE6       30.43F
COLUMBUS       PTSUNNY   55 N/A N/A E15       30.42F
FISHERS *+     FAIR      50  32  50 E9        30.44
FRANKFORT +    FAIR      55  29  37 SE10      30.45R
GREENWOOD *+   FAIR      52  25  35 SE9       30.43R
INDIANAPOLIS   PTSUNNY   53  25  33 E16       30.43R
-EAGLE CREEK   FAIR      52  25  35 E12       30.42S
KOKOMO +       PTSUNNY   48  30  49 E6        30.46R
MARION +       FAIR      48  28  45 CALM      30.45R HAZE
MT COMFORT *+  FAIR      52  32  46 E12       30.44R
SHELBYVILLE    FAIR      54  22  28 SE14      30.42F
ZIONSVILLE +   FAIR      50  26  39 E10       30.44R

$$

INZ033-034-041-042-049-050-058-059-211600-
EAST CENTRAL INDIANA

CITY           SKY/WX    TMP DP  RH WIND       PRES   REMARKS
MUNCIE         PTSUNNY   53  26  35 SE13      30.42F
RICHMOND +     FAIR      50  25  37 E8        30.44S

$$

INZ060-061-067>069-081>083-085>088-211600-
SOUTHWEST INDIANA

CITY           SKY/WX    TMP DP  RH WIND       PRES   REMARKS
EVANSVILLE     FAIR      58  31  35 E10       30.37F
HUNTINGBURG +  FAIR      58  32  37 SE12      30.38F
WASHINGTON +   FAIR      56  29  35 E8        30.40S

$$

INZ062-063-066-070>080-084-089>092-211600-
SOUTH CENTRAL AND SOUTHEAST INDIANA

CITY           SKY/WX    TMP DP  RH WIND       PRES   REMARKS
BATESVILLE +   SUNNY     52  21  30 MISG      30.41F
BEDFORD +      FAIR      55  25  30 E9        30.41S
BLOOMINGTON    FAIR      56  28  34 E12       30.41R
FRENCH LICK *+ FAIR      54  18  24 E12       30.39S
MADISON *+     FAIR      54  21  28 SE12      30.43F
NORTH VERNON + FAIR      54  23  30 E15G21    30.41F
SEYMOUR +      FAIR      57  30  35 SE13      30.41F

$$





USA.gov is the U.S. government's official web portal to all federal, state and local government web resources and services.